Вернуться в каталог

COSMOS 2408

АктивенНавигацияPO
NORAD 28419·PAYLOAD·🇷🇺 Russia

Запущен Sep 23, 2004 с Plesetsk Cosmodrome

Loading…

Ближайшие Пролёты (ближайшие 24 часа)

TLE

СвежийSource: Space-Track

Эпоха: Sep 14, 2026, 23:06 UTC

1 28419U 04037A   26257.96316497  .00000097  00000-0  60660-3 0  9992
2 28419  82.4788 269.6188 0017179  73.1632 287.1332 12.45682463999082

Отслеживайте COSMOS 2408 в реальном времени с AllMySat

Download on the App Store